KF4IRC Weather Reports


time (UTC)temp
C
wind
direction
speed
KPH
gust
KPH
rain 1hr
cm
rain 24hr
cm
rain mn
cm
humidity
%
barometer
mb
20260510202104 29 153 1.6 4.8 0.00 0.00 0.00 57 1016.6
20260510200543 29 169 0.0 9.7 0.00 0.00 0.00 59 1016.6
20260510195029 29 110 1.6 3.2 0.00 0.00 0.00 58 1016.6
20260510193532 29 139 1.6 4.8 0.00 0.00 0.00 61 1016.7
20260510192023 28 199 1.6 8.0 0.00 0.00 0.00 59 1016.7
20260510190530 28 93 1.6 6.4 0.00 0.00 0.00 61 1016.9
20260510185021 28 137 1.6 3.2 0.00 0.00 0.00 60 1017.1
20260510183520 28 119 1.6 6.4 0.00 0.00 0.00 62 1017.2
20260510182029 27 240 1.6 4.8 0.00 0.00 0.00 62 1017.4
20260510180531 26 242 3.2 4.8 0.00 0.00 0.00 65 1017.6
20260510175025 26 189 0.0 3.2 0.00 0.00 0.00 69 1017.8
20260510173537 25 233 0.0 3.2 0.00 0.00 0.00 71 1018.0
20260510172021 25 126 0.0 1.6 0.00 0.00 0.00 71 1018.0
20260510170544 24 128 0.0 3.2 0.00 0.00 0.00 74 1018.2
20260510165050 24 130 0.0 3.2 0.00 0.00 0.00 73 1018.6
20260510163521 23 96 0.0 3.2 0.00 0.00 0.00 76 1018.5
20260510162029 23 90 0.0 3.2 0.00 0.00 0.00 78 1018.3
20260510160519 22 230 0.0 4.8 0.00 0.00 0.00 80 1018.2
20260510155041 22 134 0.0 1.6 0.00 0.00 0.00 80 1018.2
20260510153543 22 134 0.0 3.2 0.00 0.00 0.00 81 1018.3
20260510152021 21 136 0.0 1.6 0.00 0.00 0.00 81 1018.2
20260510150545 21 136 0.0 1.6 0.00 0.00 0.00 81 1018.3
20260510145048 21 136 0.0 1.6 0.00 0.00 0.00 82 1018.6
20260510143530 21 136 0.0 1.6 0.00 0.00 0.00 82 1018.6
20260510142025 21 136 0.0 1.6 0.00 0.00 0.00 82 1018.4
20260510140518 21 88 0.0 0.0 0.00 0.00 0.00 82 1018.3
20260510135031 20 88 0.0 0.0 0.00 0.00 0.00 82 1018.2
20260510133522 20 88 0.0 0.0 0.00 0.00 0.00 82 1018.1
20260510132024 20 88 0.0 0.0 0.00 0.00 0.00 82 1018.1
20260510130610 20 88 0.0 0.0 0.00 0.00 0.00 82 1017.8
20260510125054 20 88 0.0 0.0 0.00 0.00 0.00 82 1017.7
20260510123544 20 96 0.0 0.0 0.00 0.00 0.00 82 1017.6
20260510122024 20 96 0.0 1.6 0.00 0.00 0.00 82 1017.2
20260510120518 19 96 0.0 1.6 0.00 0.00 0.00 82 1017.1
20260510115049 19 95 0.0 0.0 0.00 0.00 0.00 82 1016.7
20260510113519 19 96 0.0 0.0 0.00 0.00 0.00 82 1016.6
20260510112058 19 96 0.0 0.0 0.00 0.00 0.00 82 1016.4
20260510110529 19 96 0.0 0.0 0.00 0.00 0.00 82 1016.1
20260510105038 19 96 0.0 0.0 0.00 0.00 0.00 82 1016.0
20260510103524 19 96 0.0 0.0 0.00 0.00 0.00 82 1015.7
20260510102028 19 96 0.0 0.0 0.00 0.00 0.00 82 1015.6
20260510100518 19 96 0.0 1.6 0.00 0.00 0.00 82 1015.5
20260510095043 19 96 0.0 1.6 0.00 0.00 0.00 82 1015.2
20260510093518 19 95 0.0 3.2 0.00 0.00 0.00 82 1015.2
20260510092028 19 96 0.0 0.0 0.00 0.00 0.00 82 1015.0
20260510090519 19 96 0.0 0.0 0.00 0.00 0.00 82 1014.8
20260510085029 20 96 0.0 0.0 0.00 0.00 0.00 82 1014.6
20260510083519 20 96 0.0 0.0 0.00 0.00 0.00 82 1014.6
20260510082030 20 96 0.0 0.0 0.00 0.00 0.00 82 1014.5
20260510080541 20 96 0.0 0.0 0.00 0.00 0.00 82 1014.2
20260510075029 20 96 0.0 0.0 0.00 0.00 0.00 82 1014.0
20260510073524 20 96 0.0 0.0 0.00 0.00 0.00 82 1014.1
20260510072016 20 96 0.0 0.0 0.00 0.00 0.00 82 1014.4
20260510070523 20 96 0.0 0.0 0.00 0.00 0.00 82 1014.4
20260510065049 20 96 0.0 0.0 0.00 0.00 0.00 82 1014.0
20260510063522 20 96 0.0 0.0 0.00 0.00 0.00 82 1014.0
20260510062029 20 96 0.0 0.0 0.00 0.00 0.00 82 1013.8
20260510060549 20 96 0.0 0.0 0.00 0.00 0.00 82 1014.0
20260510055026 20 96 0.0 3.2 0.00 0.00 2.24 82 1014.1
20260510053539 20 40 0.0 1.6 0.00 0.00 2.24 82 1014.1
20260510052021 20 67 0.0 1.6 0.00 0.00 2.24 82 1014.0
20260510050527 20 67 0.0 0.0 0.00 0.00 2.24 82 1014.6
20260510045027 20 67 0.0 0.0 0.00 0.00 2.24 82 1014.8
20260510043519 20 67 0.0 0.0 0.00 0.00 2.24 82 1015.0
20260510042050 20 67 0.0 0.0 0.00 0.00 2.24 82 1015.2
20260510035018 20 67 0.0 0.0 0.00 0.00 2.24 82 1015.0
20260510032028 20 67 0.0 0.0 0.00 0.00 2.24 82 1015.1
20260510030532 20 67 0.0 0.0 0.03 0.00 2.24 82 1015.4
20260510025026 20 67 0.0 0.0 0.03 0.00 2.24 82 1014.9
20260510023519 20 67 0.0 0.0 0.03 0.00 2.24 82 1014.5
20260510022044 20 67 0.0 0.0 0.03 0.00 2.24 82 1014.4
20260510020516 20 67 0.0 0.0 0.00 0.00 2.21 81 1014.5
20260510015029 20 67 0.0 0.0 0.03 0.00 2.21 81 1015.0
20260510013519 20 67 0.0 0.0 0.03 0.00 2.21 81 1014.5
20260510012037 20 67 0.0 0.0 0.03 0.00 2.21 81 1014.5
20260510010542 21 67 0.0 0.0 0.03 0.00 2.21 81 1014.5
20260510005028 21 67 0.0 0.0 0.00 0.00 2.18 81 1014.6
20260510003520 21 67 0.0 1.6 0.03 0.00 2.18 81 1014.6
20260510002026 21 66 0.0 0.0 0.05 0.00 2.18 81 1014.3
20260510000531 21 66 0.0 0.0 0.00 0.00 2.18 81 1013.9
20260509235019 21 188 0.0 0.0 0.00 0.00 2.18 81 1013.1
20260509233530 21 188 0.0 0.0 0.00 0.00 2.16 81 1013.9
20260509232017 21 188 0.0 0.0 0.00 0.00 2.13 81 1013.5
20260509203527 21 269 0.0 1.6 0.00 0.00 2.01 81 1013.2